Location: Voyageurs National Park
(48.5020°N, 92.9292°W)
Time: 10:16:52
(UTC-05:00)

Daily predictions for brighter satellites

Satellite Brightness Start Highest point End
(mag) Time Altitude Azimuth Time Altitude Azimuth Time Altitude Azimuth
ALOS 2.4 20:05:43 10° SSE 20:10:25 84° WSW 20:15:07 10° NNW
Timation 1 Rocket 4.4 20:06:41 10° SSW 20:12:35 63° ESE 20:18:33 10° NE
Cosmos 1674 2.9 20:10:10 10° N 20:13:52 47° ENE 20:17:33 10° SSE
Cosmos 1271 Rocket 3.7 20:11:02 10° SSE 20:14:28 27° E 20:17:54 10° NNE
Cosmos 482 Debris 2.7 20:12:57 10° WNW 20:14:52 56° SSW 20:16:38 10° SE
GP-B 3.7 20:11:48 10° SE 20:15:51 36° E 20:19:56 10° NNE
Spot 2 Rocket 3.5 20:13:47 10° SSE 20:18:53 76° ENE 20:24:01 10° NNW
Meteor 1-4 Rocket 2.4 20:15:58 10° S 20:19:24 62° E 20:22:53 10° NNE
Cosmos 1758 3.2 20:20:43 10° S 20:24:41 75° E 20:28:43 10° NNE
Cosmos 389 Rocket 4.5 20:24:14 11° E 20:24:46 11° E 20:25:52 10° ENE
USA 186 1.6 20:23:10 10° SE 20:25:12 33° ENE 20:27:16 10° N
Cosmos 1184 Rocket 4.0 20:22:48 10° NNE 20:25:43 26° ENE 20:28:29 11° SE
Resurs 01 Rocket 1.7 20:22:40 10° SSE 20:27:05 87° WSW 20:31:34 10° NNW
Cosmos 2098 Rocket 4.4 20:20:19 10° S 20:27:46 72° E 20:35:12 10° NNE
USA 267 4.1 20:22:44 10° ENE 20:28:49 43° N 20:34:56 10° WNW
Cosmos 1953 2.3 20:26:11 10° S 20:30:14 79° E 20:34:19 10° NNE
CZ-4C R/B4.320:33:11ENE20:33:11ENE20:26:27SE
Cosmos 1743 Rocket 4.1 20:28:34 10° N 20:32:47 41° ENE 20:37:00 10° SE
Cosmos 1500 Rocket 4.4 20:29:28 10° N 20:33:20 31° ENE 20:36:54 11° SE
Cosmos 1626 4.3 20:33:22 10° NE 20:34:25 11° ENE 20:35:12 10° ENE
Cosmos 1544 3.5 20:30:53 10° SSW 20:34:31 68° W 20:38:13 10° N
Cosmos 1867 3.5 20:29:21 10° SSW 20:34:46 74° SE 20:40:15 10° NE
Envisat 3.4 20:32:22 10° SE 20:37:11 45° ENE 20:42:01 10° N
Cosmos 1605 Rocket 4.3 20:31:51 10° SSW 20:38:09 74° W 20:44:35 10° N
SeaSat 1 3.2 20:36:29 10° SSE 20:41:17 53° WSW 20:46:08 10° NW
Cosmos 2100 Rocket 4.1 20:36:54 10° S 20:43:05 58° E 20:49:20 10° NNE
CZ-4B DEB 3.0 20:41:50 13° SE 20:44:23 45° ENE 20:47:23 10° N
Cosmos 1939 Rocket 3.5 20:41:38 12° SE 20:45:07 40° ENE 20:49:01 10° N
Cosmos 2369 Rocket 3.5 20:42:50 13° SE 20:45:12 17° E 20:48:40 10° ENE
Fregat R/B Cluster 11 4.1 20:40:45 10° SSW 20:45:45 56° SE 20:49:03 10° NE
Geosat 4.4 20:41:12 10° NE 20:45:54 38° ESE 20:50:34 10° S
Lacrosse 5 rocket 2.2 20:42:57 10° WNW 20:46:41 40° SW 20:50:09 10° SSE
ERS-1 Rocket 3.8 20:43:12 15° ESE 20:46:43 32° ENE 20:51:10 10° N
Helios 1B rocket 2.7 20:44:04 10° NNE 20:48:04 45° E 20:52:01 10° S
Cosmos 1125 Rocket 3.7 20:43:47 10° SSW 20:48:59 76° WNW 20:54:15 10° NNE
Cosmos 2151 3.8 20:45:13 10° N 20:49:03 32° ENE 20:51:27 19° SE
CZ-2D R/B 3.8 20:47:43 10° S 20:51:33 62° WSW 20:55:27 10° NNW
Cosmos 1408 Rocket 4.0 20:47:17 10° NNW 20:51:45 67° W 20:56:10 10° S
Cosmos 1833 Rocket 3.6 20:47:25 10° NW 20:52:51 50° WSW 20:58:14 10° S
ISS -3.5 20:51:06 10° SW 20:54:13 44° SSE 20:55:50 24° E
Lacrosse 4 Rocket 4.3 20:57:04 10° WNW 20:59:14 14° NW 21:01:25 10° N
H-2A R/B 3.8 20:59:47 14° ENE 21:01:32 17° NE 21:04:44 10° NNE
MINOTAUR R/B 4.4 21:02:37 10° S 21:05:26 53° ESE 21:08:18 10° NE
ATLAS 5 CENTAUR R/B 1.8 21:01:54 10° SW 21:06:41 84° SE 21:11:57 10° NE
Cosmos 1733 3.3 21:02:55 10° S 21:06:47 83° W 21:10:43 10° N
Cosmos 1802 Rocket 3.9 21:02:03 10° S 21:08:08 70° E 21:14:19 10° NNE
Cosmos 2278 Rocket 3.9 21:04:00 10° WSW 21:09:10 35° NW 21:14:23 10° NNE
Cosmos 1842 Rocket 3.6 21:07:13 10° S 21:11:31 54° E 21:15:49 10° NNE
Meteor 1-29 2.8 21:09:20 10° NNE 21:12:49 69° ESE 21:16:18 10° S
Cosmos 1470 3.2 21:10:10 10° SSW 21:14:07 66° W 21:18:04 10° N
Helios 1A 3.8 21:13:54 10° S 21:17:58 52° W 21:22:06 10° NNW
SS 1 4.4 21:18:14 10° NW 21:21:07 87° NE 21:21:40 56° SE
Lacrosse 5 3.1 21:20:53 10° W 21:25:39 39° NNW 21:30:26 10° NE
Cosmos 1459 Rocket 4.1 21:19:39 10° SSW 21:25:53 77° W 21:32:04 10° N
Cosmos 2061 Rocket 4.1 21:20:58 10° S 21:27:23 82° W 21:33:53 10° N
Cosmos 1340 Rocket 4.4 21:24:51 10° NNW 21:28:33 35° W 21:32:12 10° SSW
MetOp-A 4.3 21:28:11 32° SE 21:30:26 52° ENE 21:35:38 10° N
Cosmos 1356 Rocket 3.6 21:27:04 10° NNW 21:31:10 68° W 21:33:40 22° S
Coronas F rocket 3.4 21:30:21 10° N 21:30:53 15° N 21:30:53 15° N
Cosmos 2251 Rocket 3.9 21:27:20 10° NNW 21:32:37 63° WSW 21:36:35 18° S
SPOT 5 3.5 21:31:27 34° ESE 21:33:14 45° ENE 21:38:14 10° N
BREEZE-M DEB 3.9 21:30:10 10° WNW 21:33:56 84° NNE 21:34:01 82° ENE
Cosmos 2082 Rocket 4.4 21:30:42 10° NW 21:34:58 22° W 21:39:13 10° SSW
Meteor 2-17 Rocket 4.4 21:29:13 10° S 21:35:23 90° NNW 21:41:34 10° N
Cosmos 2173 Rocket 4.3 21:29:19 10° SSW 21:35:29 68° WNW 21:41:48 10° N
Terra 3.6 21:35:22 17° ENE 21:35:30 17° ENE 21:38:29 10° NNE
Cosmos 2233 Rocket 4.3 21:33:30 30° SE 21:35:50 43° E 21:41:34 10° NNE
USA 215 3.7 21:30:22 10° ENE 21:36:17 36° SE 21:42:11 10° SSW
YAOGAN 6 2.5 21:35:30 51° SSE 21:36:21 80° ENE 21:40:07 10° N
ARGOS 3.5 21:36:22 35° ESE 21:37:55 45° ENE 21:43:00 10° N
Sich 1 4.0 21:36:31 10° N 21:40:21 32° ENE 21:40:21 32° ENE
Cosmos 1864 Rocket 4.4 21:35:37 10° S 21:41:55 73° E 21:48:12 10° NNE
CZ-3B DEB 3.0 21:35:27 10° W 21:43:01 46° NNW 21:45:41 19° NE
YAOGAN 11 4.1 21:43:43 48° SE 21:44:49 67° ENE 21:49:19 10° N
SPOT 1/Viking Rocket 4.1 21:44:19 37° E 21:45:14 40° ENE 21:50:07 10° N
Cosmos 1666 Rocket 4.2 21:44:27 10° N 21:48:11 38° ENE 21:48:11 38° ENE
SL-14 R/B 4.3 21:44:53 10° NNW 21:48:35 44° W 21:50:45 22° SSW
Cosmos 1633 Rocket 4.0 21:45:33 10° N 21:49:11 33° ENE 21:49:11 33° ENE
BREEZE-M DEB (TANK) 4.1 21:46:44 10° WSW 21:50:39 87° SSE 22:05:53 10° E
Meteor 1-16 Rocket 4.5 21:47:05 10° SSW 21:52:58 75° WNW 21:58:57 10° N
Cosmos 2221 2.4 21:58:07 68° E 21:58:07 68° E 22:02:28 10° NNE
Cosmos 389 Rocket 3.1 21:58:09 38° SW 21:59:08 54° WNW 22:02:38 10° N
Cosmos 2058 3.6 22:00:20 10° NNW 22:04:24 52° W 22:05:31 39° SW
Gblst 52 Del rocket 4.1 22:00:33 10° SW 22:06:14 56° SSE 22:06:18 56° SE
Cosmos 1626 2.5 22:06:33 10° NNW 22:09:54 64° NW 22:09:54 64° NW
USA 267 3.4 22:08:51 40° E 22:11:19 67° NNE 22:17:48 10° NW
H-2A R/B 3.2 22:13:53 31° NNE 22:13:53 31° NNE 22:16:35 10° N
Cosmos 2297 Rocket 4.3 22:11:09 10° N 22:14:11 14° NNE 22:15:58 13° NE
Cosmos 1805 Rocket 3.5 22:10:53 10° NNW 22:15:20 80° W 22:15:27 79° WSW
CZ-4C R/B 2.2 22:17:57 62° E 22:17:57 62° E 22:23:31 10° NE
Cosmos 1725 Rocket 4.3 22:12:14 10° SSW 22:18:23 63° WNW 22:24:33 10° N
Cosmos 1703 3.9 22:14:50 10° NNW 22:18:39 51° W 22:18:39 51° W
Meteor 2-1 Rocket 4.4 22:17:50 22° SSW 22:21:37 72° WNW 22:27:16 10° N
MetOp-B 4.4 22:23:04 45° SSW 22:24:30 62° WSW 22:29:50 10° NNW
ERS-1 Rocket 4.1 22:23:13 26° SSW 22:25:24 39° W 22:30:09 10° NNW
Cosmos 1464 Rocket 4.3 22:26:30 46° ENE 22:26:30 46° ENE 22:31:56 10° NNE
Nimbus 7 Rocket 4.2 22:21:48 10° NNE 22:27:39 69° ESE 22:27:51 68° ESE
Cosmos 2369 Rocket 2.1 22:23:52 16° SSW 22:28:29 84° WNW 22:34:08 10° NNE
Meteor 2-12 Rocket 4.4 22:29:19 61° E 22:29:19 61° E 22:35:10 10° NNE
ISS -1.2 22:27:27 10° W 22:28:31 19° W 22:28:31 19° W
Cosmos 1833 4.0 22:27:04 10° NNW 22:32:44 90° S 22:33:01 82° SSE
H-2A R/B 2.0 22:40:24 85° N 22:40:24 85° N 22:45:34 10° NNW
Cosmos 1190 Rocket 4.2 22:35:43 10° NNW 22:40:32 64° NNE 22:40:32 64° NNE
Cosmos 2227 Rocket 3.8 22:36:55 10° N 22:41:21 23° NE 22:41:45 22° NE
SL-24 R/B - RUBIN 2 4.1 22:35:54 10° NW 22:42:06 78° NE 22:42:06 78° NE
Cosmos 1943 Rocket 2.9 22:50:28 43° NE 22:50:28 43° NE 22:54:16 10° NNE
Cosmos 2263 4.1 22:49:50 80° WNW 22:49:54 81° WNW 22:55:37 10° NNE
ATLAS 5 CENTAUR R/B 3.9 22:47:47 10° W 22:52:02 27° NNW 22:56:40 10° NNE
Landsat 7 4.5 22:58:30 53° NNW 22:58:30 53° NNW 23:02:12 10° NNW
ATLAS 3B R/B 4.0 23:07:30 28° ENE 23:07:30 28° ENE 23:10:47 10° NE
Lacrosse 5 3.3 23:05:06 10° WNW 23:09:39 32° N 23:10:11 31° NNE
Terra 2.9 23:14:14 43° NNW 23:14:14 43° NNW 23:17:28 10° NNW
USA 215 3.2 23:13:10 10° NE 23:19:44 84° NNW 23:26:16 10° WSW
Cosmos 407 Rocket 4.3 23:16:21 10° NNW 23:20:16 48° NW 23:20:16 48° NW
Cosmos 2219 3.7 23:18:45 10° NNW 23:23:07 55° NNW 23:23:07 55° NNW
Nadezhda 4 Rocket 4.2 23:21:00 10° N 23:26:11 65° N 23:26:11 65° N
CZ-3B DEB 4.2 23:50:59 10° WNW 23:52:05 15° NW 23:52:05 15° NW
